GFSNIL_con_lsi_057.txt.gz
Lid_Strength_Index
1 1 1 1 1 1 1 1 -0 -0 -0 -0 -0 -0 -0 0 0 0 1 1 1 1
1 1 1 1 0 1 0 0 0 -0 0 -0 -0 -0 -0 0 0 0 0 1 1 1
1 1 1 1 1 1 0 0 0 0 0 0 -0 -0 -0 0 -0 0 0 1 1 1
1 1 0 1 0 0 0 0 0 0 0 0 0 -0 0 0 0 1 1 1 1 1
1 1 1 1 1 0 0 0 0 0 0 0 0 0 0 1 1 1 1 1 1 2
1 1 1 1 0 0 0 0 0 0 1 1 0 0 0 0 1 1 1 1 1 1
1 1 1 1 0 0 0 0 0 0 0 0 0 0 0 0 1 1 0 0 1 1
1 1 1 1 1 0 0 0 0 0 0 0 0 0 0 0 1 1 1 0 0 1
1 1 1 1 1 1 1 1 0 1 1 1 1 8 5 2 1 1 1 1 1 0
1 1 1 1 1 1 1 1 1 1 1 1 2 9 8 5 0 1 1 1 1 1
1 2 1 1 1 1 1 1 1 1 1 1 2 10 9 6 0 0 1 1 1 1
1 2 1 2 1 1 1 1 1 1 1 2 1 9 8 4 0 1 1 1 0 1
1 1 2 1 1 1 1 1 1 1 1 4 1 9 9 4 1 2 2 1 1 6
1 1 1 1 1 1 1 1 1 1 1 1 1 2 9 7 1 1 2 2 2 3

GFSNIL_con_lsi_060.txt.gz
Lid_Strength_Index
0 1 1 0 1 1 1 0 -0 -0 -0 -1 -0 -0 -1 -0 -0 -0 0 0 0 0
0 0 1 0 -0 0 -0 0 -0 -0 -0 -0 -1 -0 -0 0 0 -0 -0 0 0 1
1 0 0 0 0 0 -0 -0 -0 -0 -0 -0 -0 -0 -0 -0 -0 0 -0 0 1 1
1 0 0 0 0 0 -0 -0 0 0 0 0 0 -0 -0 -0 -0 0 0 0 1 1
1 1 1 1 0 -0 0 -0 -0 -0 0 0 0 -0 0 0 0 1 1 1 1 1
1 1 1 0 0 -0 0 -0 -0 0 0 0 0 0 -0 0 0 0 1 1 1 1
1 1 1 0 0 0 0 0 0 0 0 0 0 0 -0 0 0 0 0 0 -0 0
1 0 0 0 0 0 0 0 0 0 0 -0 0 0 0 0 0 0 0 0 1 0
1 1 1 1 1 0 0 0 0 0 0 0 1 7 4 1 0 0 1 1 1 0
1 1 1 1 1 1 1 0 0 0 0 1 0 9 8 5 0 0 1 1 1 1
1 1 1 1 1 1 0 1 1 0 1 1 1 9 9 7 0 0 0 0 1 1
1 1 1 1 1 1 1 1 1 1 1 1 1 9 9 5 0 1 1 0 0 0
1 1 1 1 1 1 1 1 1 1 1 3 1 9 9 4 0 1 1 1 0 6
0 1 1 1 1 1 1 1 1 1 1 0 1 1 8 7 1 1 1 1 1 0

GFSNIL_con_lsi_063.txt.gz
Lid_Strength_Index
0 1 1 1 1 1 1 1 -0 -0 -0 -0 -0 -0 -1 -0 0 -0 0 1 0 1
1 1 1 1 0 1 -0 0 -0 -0 -0 -0 -0 -0 -0 0 0 -0 0 0 0 0
1 0 1 0 0 0 -0 -0 -0 -0 -0 -0 -0 -0 -0 0 -0 0 0 0 1 1
1 1 1 1 0 0 -0 -0 0 0 0 0 0 0 0 -0 0 0 0 1 1 1
1 1 1 1 0 -0 0 -0 -0 0 0 0 0 0 1 0 0 1 1 1 1 1
1 1 1 0 0 0 0 0 -0 0 0 1 1 1 0 1 1 0 0 1 1 1
1 1 1 0 0 0 0 0 0 0 0 1 1 0 0 0 0 0 0 0 0 1
1 1 1 1 0 1 0 1 0 1 1 0 0 1 0 0 0 1 1 1 1 0
1 1 1 1 1 1 1 1 1 1 1 1 1 7 3 1 0 0 1 1 1 0
1 1 1 1 1 1 1 1 1 1 1 1 1 8 7 5 0 1 0 1 1 1
1 1 1 1 1 1 1 1 1 1 0 1 1 8 8 8 0 0 1 1 1 1
1 1 1 1 2 1 1 1 1 1 1 1 1 8 8 5 0 1 1 1 0 0
1 1 1 2 1 1 1 1 1 1 0 3 1 8 9 4 1 1 1 1 0 7
1 1 1 1 1 1 1 1 1 1 1 0 1 1 8 6 0 1 1 1 1 1

GFSNIL_con_lsi_069.txt.gz
Lid_Strength_Index
2 2 2 2 2 2 2 2 1 1 1 1 1 1 2 2 2 2 2 2 3 3
2 3 2 2 2 2 2 1 1 1 1 1 2 1 2 2 2 2 2 3 2 3
2 2 2 1 2 2 2 1 1 2 2 2 2 2 2 2 2 2 2 2 3 3
2 2 2 2 2 1 1 1 1 2 2 2 2 2 2 2 2 2 2 2 2 3
2 2 2 3 3 2 2 2 2 2 2 2 1 2 2 2 2 2 2 2 2 2
2 3 3 3 3 2 2 3 2 2 1 1 1 1 1 1 2 2 2 2 2 2
2 3 3 3 2 2 2 2 2 1 1 1 1 1 1 1 2 2 2 2 2 2
2 3 2 2 2 2 2 2 1 1 1 1 2 1 1 1 1 2 2 2 2 3
2 2 3 2 2 2 2 1 1 1 1 3 2 7 5 3 2 2 2 3 3 3
2 2 2 2 2 2 2 2 2 2 2 3 5 8 6 3 2 2 2 2 2 2
2 2 2 2 2 2 2 2 3 2 3 4 6 9 8 5 2 2 2 3 2 2
2 3 2 3 3 2 3 3 3 2 3 4 6 9 9 5 2 2 2 1 1 2
2 2 3 2 2 2 2 2 2 2 3 5 5 8 9 6 2 3 2 2 3 6
2 2 2 2 2 2 2 2 3 3 3 3 4 6 9 10 2 3 3 3 4 6

GFSNIL_con_lsi_075.txt.gz
Lid_Strength_Index
4 4 2 2 2 2 2 2 2 2 2 2 3 3 2 3 3 4 4 4 5 5
3 3 2 2 2 2 2 2 2 2 2 3 3 2 3 3 2 3 4 5 4 4
2 2 2 2 2 2 2 2 2 2 3 3 3 3 3 4 4 4 4 4 4 4
2 2 2 2 2 2 2 2 2 2 3 2 3 3 4 4 4 4 4 4 3 4
2 2 2 2 2 2 2 2 2 3 2 2 2 3 3 3 3 3 3 3 3 4
3 2 2 2 2 2 2 3 3 2 2 3 3 3 3 3 2 3 3 3 3 3
3 2 2 2 2 2 2 3 3 2 2 3 3 3 3 2 2 2 2 2 3 3
2 3 3 3 3 2 3 3 2 3 3 3 2 2 2 2 3 3 3 3 2 2
3 3 3 3 3 3 4 3 3 3 3 3 2 8 6 3 2 3 3 3 3 4
4 4 4 4 4 4 5 4 4 4 4 4 4 9 8 6 2 3 3 4 4 4
3 3 3 4 4 5 5 4 4 4 4 4 6 10 10 7 3 3 4 4 4 3
2 3 4 4 4 4 4 4 4 5 5 5 6 11 11 5 3 4 4 3 3 3
2 4 5 4 5 4 3 4 4 5 5 7 5 11 11 5 3 4 4 3 3 7
3 4 4 4 3 4 3 3 4 5 5 5 6 8 11 9 3 3 4 4 4 6